Flag for Norway Weather past 2 weeks in Arendal, Norway

Now
49 °F

Cool.


Feels Like: 48 °F
Forecast: 42 / 63 °F
Wind: 3 mph from North

Location: Torungen Fyr

Current Time: Apr 21, 2015 at 9:11:49 AM

Latest Report: Apr 21, 2015 at 8:00 AM


Visibility: N/A

Pressure: 30.32 "Hg

Humidity: 56%

Dew point: 34 °F

Location of ArendalLocation

Historic Weather in Arendal — Graph

°F

Arendal temperature yesterday

Maximum temperature yesterday: 69 °F (at 5:00 PM)
Minimum temperature yesterday: 48 °F (at 7:00 AM)
Average temperature yesterday: 57 °F

Past Weeks' High & Low Weather Summary

 TemperatureHumidityPressure
High69 °F (Apr 20, 5:00 PM)99% (Apr 10, 10:00 PM)30.49 "Hg (Apr 10, 10:00 PM)
Low35 °F (Apr 6, 7:00 AM)17% (Apr 20, 5:00 PM)29.55 "Hg (Apr 15, 4:00 PM)
Average45 °F72%30.09 "Hg
* Reported Apr 6 6:00 AM — Apr 21 6:00 AM, Arendal, Weather by CustomWeather, © 2015

Note: Actual official high and low records may vary slightly from our data, if they occured in-between our weather recording intervals... More about our weather records

Advertising

Arendal weather history for previous 24 hours

 ConditionsComfort  
Time TempWeatherWind HumidityBarometerVisibility
6:00 AM
Tue, Apr 21
49 °FCool.5 mph57%30.28 "HgN/A
5:00 AM50 °FCool.7 mph48%30.27 "HgN/A
4:00 AM52 °FCool.8 mph46%30.27 "HgN/A
3:00 AM52 °FCool.5 mph48%30.28 "HgN/A
2:00 AM54 °FCool.5 mph39%30.26 "HgN/A
1:00 AM56 °FRefreshingly cool.6 mph36%30.26 "HgN/A
12:00 AM57 °FRefreshingly cool.5 mph36%30.27 "HgN/A
11:00 PM
Mon, Apr 20
60 °FRefreshingly cool.6 mph33%30.27 "HgN/A
10:00 PM60 °FRefreshingly cool.7 mph28%30.28 "HgN/A
9:00 PM62 °FRefreshingly cool.8 mph28%30.28 "HgN/A
8:00 PM65 °FMild.9 mph22%30.30 "HgN/A
7:00 PM66 °FMild.9 mph21%30.31 "HgN/A
6:00 PM68 °FMild.9 mph18%30.31 "HgN/A
5:00 PM69 °FMild.10 mph17%30.32 "HgN/A
4:00 PM58 °FRefreshingly cool.9 mph47%30.33 "HgN/A
3:00 PM56 °FRefreshingly cool.13 mph50%30.34 "HgN/A
2:00 PM55 °FCool.12 mph53%30.36 "HgN/A
1:00 PM55 °FRefreshingly cool.9 mph54%30.37 "HgN/A
12:00 PM56 °FRefreshingly cool.9 mph46%30.38 "HgN/A
11:00 AM59 °FRefreshingly cool.2 mph44%30.38 "HgN/A
10:00 AM60 °FRefreshingly cool.2 mph38%30.38 "HgN/A
9:00 AM57 °FRefreshingly cool.3 mph37%30.38 "HgN/A
Weather by CustomWeather, © 2015

See weather overviewHow to use our weather pages